Wetterdaten: Freitag, 29.01.2016
Datum Zeit Temp. A. Feuchte A. Luftdruck Regen Wind Richtung Richtung Sonnenschein ET UV Solar Taupunkt Windchill Windben Empfang
29.01.2016 00:00 6,4 C 97 % 1026,9 hPa 0,0 l/m 2,7 km/h (1 Bft) SW 234 0 min 0,000 mm 0,0 UV-I 0 W/m 6,0 C 6,4 C 4,8 km/h (1 Bft) 95,87 %
29.01.2016 00:05 6,4 C 97 % 1026,9 hPa 0,0 l/m 2,4 km/h (1 Bft) S 190 0 min 0,000 mm 0,0 UV-I 0 W/m 6,0 C 6,4 C 4,8 km/h (1 Bft) 98,17 %
29.01.2016 00:10 6,4 C 98 % 1026,9 hPa 0,0 l/m 3,0 km/h (1 Bft) S-SW 211 0 min 0,000 mm 0,0 UV-I 0 W/m 6,1 C 6,4 C 4,8 km/h (1 Bft) 97,44 %
29.01.2016 00:15 6,4 C 98 % 1026,9 hPa 0,0 l/m 3,0 km/h (1 Bft) S-SW 202 0 min 0,000 mm 0,0 UV-I 0 W/m 6,1 C 6,4 C 4,8 km/h (1 Bft) 97,39 %
29.01.2016 00:20 6,4 C 98 % 1026,9 hPa 0,0 l/m 2,4 km/h (1 Bft) S-SW 202 0 min 0,000 mm 0,0 UV-I 0 W/m 6,1 C 6,4 C 3,2 km/h (1 Bft) 95,93 %
29.01.2016 00:25 6,3 C 98 % 1026,7 hPa 0,2 l/m 2,4 km/h (1 Bft) S-SW 202 0 min 0,000 mm 0,0 UV-I 0 W/m 6,0 C 6,3 C 3,2 km/h (1 Bft) 97,48 %
29.01.2016 00:30 6,4 C 98 % 1026,7 hPa 0,0 l/m 2,8 km/h (1 Bft) S-SW 202 0 min 0,000 mm 0,0 UV-I 0 W/m 6,1 C 6,4 C 4,8 km/h (1 Bft) 97,25 %
29.01.2016 00:35 6,4 C 98 % 1026,7 hPa 0,0 l/m 2,9 km/h (1 Bft) S-SW 202 0 min 0,000 mm 0,0 UV-I 0 W/m 6,1 C 6,4 C 4,8 km/h (1 Bft) 99,19 %
29.01.2016 00:40 6,4 C 98 % 1026,7 hPa 0,0 l/m 2,9 km/h (1 Bft) S-SW 202 0 min 0,000 mm 0,0 UV-I 0 W/m 6,1 C 6,4 C 4,8 km/h (1 Bft) 99,11 %
29.01.2016 00:45 6,4 C 98 % 1026,6 hPa 0,2 l/m 2,4 km/h (1 Bft) S-SW 202 0 min 0,000 mm 0,0 UV-I 0 W/m 6,1 C 6,4 C 4,8 km/h (1 Bft) 100,00 %
29.01.2016 00:50 6,3 C 98 % 1026,5 hPa 0,0 l/m 2,6 km/h (1 Bft) S-SW 202 0 min 0,000 mm 0,0 UV-I 0 W/m 6,0 C 6,3 C 4,8 km/h (1 Bft) 98,37 %
29.01.2016 00:55 6,3 C 98 % 1026,5 hPa 0,0 l/m 2,2 km/h (1 Bft) S-SW 202 0 min 0,000 mm 0,0 UV-I 0 W/m 6,0 C 6,3 C 4,8 km/h (1 Bft) 98,21 %
29.01.2016 01:00 6,3 C 98 % 1026,4 hPa 0,0 l/m 1,9 km/h (1 Bft) S-SW 202 0 min 0,000 mm 0,0 UV-I 0 W/m 6,0 C 6,3 C 3,2 km/h (1 Bft) 97,50 %
29.01.2016 01:05 6,3 C 98 % 1026,5 hPa 0,0 l/m 0,5 km/h (0 Bft) S-SW 202 0 min 0,000 mm 0,0 UV-I 0 W/m 6,0 C 6,3 C 1,6 km/h (1 Bft) 100,00 %
29.01.2016 01:10 6,3 C 98 % 1026,4 hPa 0,0 l/m 0,3 km/h (0 Bft) S-SW 202 0 min 0,000 mm 0,0 UV-I 0 W/m 6,0 C 6,3 C 1,6 km/h (1 Bft) 100,00 %
29.01.2016 01:15 6,3 C 98 % 1026,4 hPa 0,0 l/m 1,1 km/h (1 Bft) S-SW 202 0 min 0,000 mm 0,0 UV-I 0 W/m 6,0 C 6,3 C 3,2 km/h (1 Bft) 100,00 %
29.01.2016 01:20 6,3 C 98 % 1026,4 hPa 0,2 l/m 1,3 km/h (1 Bft) S-SW 202 0 min 0,000 mm 0,0 UV-I 0 W/m 6,0 C 6,3 C 3,2 km/h (1 Bft) 100,00 %
29.01.2016 01:25 6,3 C 98 % 1026,4 hPa 0,0 l/m 1,0 km/h (0 Bft) S-SW 202 0 min 0,000 mm 0,0 UV-I 0 W/m 6,0 C 6,3 C 3,2 km/h (1 Bft) 99,17 %
29.01.2016 01:30 6,3 C 98 % 1026,3 hPa 0,0 l/m 1,2 km/h (1 Bft) S-SW 202 0 min 0,000 mm 0,0 UV-I 0 W/m 6,0 C 6,3 C 3,2 km/h (1 Bft) 100,00 %
29.01.2016 01:35 6,2 C 98 % 1026,2 hPa 0,2 l/m 0,9 km/h (0 Bft) S-SW 202 0 min 0,000 mm 0,0 UV-I 0 W/m 5,9 C 6,2 C 3,2 km/h (1 Bft) 100,00 %
29.01.2016 01:40 6,2 C 98 % 1026,2 hPa 0,0 l/m 0,5 km/h (0 Bft) S-SW 202 0 min 0,000 mm 0,0 UV-I 0 W/m 5,9 C 6,2 C 3,2 km/h (1 Bft) 98,25 %
29.01.2016 01:45 6,2 C 98 % 1026,1 hPa 0,0 l/m 0,1 km/h (0 Bft) S-SW 202 0 min 0,000 mm 0,0 UV-I 0 W/m 5,9 C 6,2 C 1,6 km/h (1 Bft) 99,21 %
29.01.2016 01:50 6,3 C 98 % 1026,1 hPa 0,0 l/m 0,1 km/h (0 Bft) S-SW 202 0 min 0,000 mm 0,0 UV-I 0 W/m 6,0 C 6,3 C 1,6 km/h (1 Bft) 100,00 %
29.01.2016 01:55 6,3 C 98 % 1026,1 hPa 0,0 l/m 0,1 km/h (0 Bft) S-SW 202 0 min 0,000 mm 0,0 UV-I 0 W/m 6,0 C 6,3 C 1,6 km/h (1 Bft) 100,00 %
29.01.2016 02:00 6,3 C 98 % 1026,1 hPa 0,0 l/m 0,1 km/h (0 Bft) S-SW 202 0 min 0,000 mm 0,0 UV-I 0 W/m 6,0 C 6,3 C 1,6 km/h (1 Bft) 98,35 %
29.01.2016 02:05 6,2 C 98 % 1026,1 hPa 0,0 l/m 0,0 km/h (0 Bft) S-SW 202 0 min 0,000 mm 0,0 UV-I 0 W/m 5,9 C 6,2 C 1,6 km/h (1 Bft) 96,52 %
29.01.2016 02:10 6,2 C 98 % 1026,0 hPa 0,0 l/m 0,5 km/h (0 Bft) S-SW 202 0 min 0,000 mm 0,0 UV-I 0 W/m 5,9 C 6,2 C 3,2 km/h (1 Bft) 96,67 %
29.01.2016 02:15 6,2 C 98 % 1026,0 hPa 0,0 l/m 0,8 km/h (0 Bft) S-SW 202 0 min 0,000 mm 0,0 UV-I 0 W/m 5,9 C 6,2 C 3,2 km/h (1 Bft) 97,52 %
29.01.2016 02:20 6,3 C 98 % 1026,0 hPa 0,0 l/m 0,0 km/h (0 Bft) S-SW 202 0 min 0,000 mm 0,0 UV-I 0 W/m 6,0 C 6,3 C 1,6 km/h (1 Bft) 97,30 %
29.01.2016 02:25 6,2 C 98 % 1025,9 hPa 0,0 l/m 0,0 km/h (0 Bft) S-SW 202 0 min 0,000 mm 0,0 UV-I 0 W/m 5,9 C 6,2 C 0,0 km/h (0 Bft) 97,32 %
29.01.2016 02:30 6,2 C 98 % 1025,9 hPa 0,2 l/m 0,0 km/h (0 Bft) S-SW 202 0 min 0,000 mm 0,0 UV-I 0 W/m 5,9 C 6,2 C 0,0 km/h (0 Bft) 96,77 %
29.01.2016 02:35 6,1 C 98 % 1025,9 hPa 0,0 l/m 0,0 km/h (0 Bft) S-SW 202 0 min 0,000 mm 0,0 UV-I 0 W/m 5,8 C 6,1 C 0,0 km/h (0 Bft) 97,50 %
29.01.2016 02:40 5,9 C 98 % 1025,8 hPa 0,0 l/m 0,0 km/h (0 Bft) S-SW 202 0 min 0,000 mm 0,0 UV-I 0 W/m 5,6 C 5,9 C 0,0 km/h (0 Bft) 98,26 %
29.01.2016 02:45 6,0 C 98 % 1025,9 hPa 0,2 l/m 0,1 km/h (0 Bft) S-SW 202 0 min 0,000 mm 0,0 UV-I 0 W/m 5,7 C 6,0 C 1,6 km/h (1 Bft) 98,21 %
29.01.2016 02:50 6,1 C 98 % 1025,9 hPa 0,0 l/m 0,1 km/h (0 Bft) S-SW 202 0 min 0,000 mm 0,0 UV-I 0 W/m 5,8 C 6,1 C 1,6 km/h (1 Bft) 99,17 %
29.01.2016 02:55 6,0 C 98 % 1025,9 hPa 0,0 l/m 0,0 km/h (0 Bft) S-SW 202 0 min 0,000 mm 0,0 UV-I 0 W/m 5,7 C 6,0 C 1,6 km/h (1 Bft) 100,00 %
29.01.2016 03:00 5,9 C 98 % 1025,9 hPa 0,2 l/m 0,0 km/h (0 Bft) S-SW 202 0 min 0,000 mm 0,0 UV-I 0 W/m 5,6 C 5,9 C 1,6 km/h (1 Bft) 99,19 %
29.01.2016 03:05 6,0 C 98 % 1025,9 hPa 0,2 l/m 0,0 km/h (0 Bft) S-SW 202 0 min 0,000 mm 0,0 UV-I 0 W/m 5,7 C 6,0 C 0,0 km/h (0 Bft) 99,11 %
29.01.2016 03:10 6,0 C 98 % 1025,7 hPa 0,2 l/m 0,0 km/h (0 Bft) S-SW 202 0 min 0,000 mm 0,0 UV-I 0 W/m 5,7 C 6,0 C 0,0 km/h (0 Bft) 100,00 %
29.01.2016 03:15 6,1 C 98 % 1025,7 hPa 0,0 l/m 0,0 km/h (0 Bft) S-SW 202 0 min 0,000 mm 0,0 UV-I 0 W/m 5,8 C 6,1 C 0,0 km/h (0 Bft) 100,00 %
29.01.2016 03:20 5,9 C 98 % 1025,7 hPa 0,0 l/m 0,0 km/h (0 Bft) S-SW 202 0 min 0,000 mm 0,0 UV-I 0 W/m 5,6 C 5,9 C 1,6 km/h (1 Bft) 98,43 %
29.01.2016 03:25 6,0 C 98 % 1025,7 hPa 0,2 l/m 0,1 km/h (0 Bft) S-SW 202 0 min 0,000 mm 0,0 UV-I 0 W/m 5,7 C 6,0 C 1,6 km/h (1 Bft) 99,11 %
29.01.2016 03:30 5,9 C 98 % 1025,7 hPa 0,0 l/m 0,2 km/h (0 Bft) S-SW 202 0 min 0,000 mm 0,0 UV-I 0 W/m 5,6 C 5,9 C 1,6 km/h (1 Bft) 99,17 %
29.01.2016 03:35 6,0 C 98 % 1025,7 hPa 0,2 l/m 0,0 km/h (0 Bft) S-SW 202 0 min 0,000 mm 0,0 UV-I 0 W/m 5,7 C 6,0 C 1,6 km/h (1 Bft) 100,00 %
29.01.2016 03:40 6,1 C 98 % 1025,6 hPa 0,0 l/m 0,0 km/h (0 Bft) S-SW 202 0 min 0,000 mm 0,0 UV-I 0 W/m 5,8 C 6,1 C 0,0 km/h (0 Bft) 99,10 %
29.01.2016 03:45 6,0 C 98 % 1025,5 hPa 0,2 l/m 0,0 km/h (0 Bft) S-SW 202 0 min 0,000 mm 0,0 UV-I 0 W/m 5,7 C 6,0 C 0,0 km/h (0 Bft) 100,00 %
29.01.2016 03:50 5,9 C 98 % 1025,5 hPa 0,0 l/m 0,0 km/h (0 Bft) S-SW 202 0 min 0,000 mm 0,0 UV-I 0 W/m 5,6 C 5,9 C 0,0 km/h (0 Bft) 100,00 %
29.01.2016 03:55 5,9 C 98 % 1025,5 hPa 0,2 l/m 0,0 km/h (0 Bft) S-SW 202 0 min 0,000 mm 0,0 UV-I 0 W/m 5,6 C 5,9 C 0,0 km/h (0 Bft) 100,00 %
29.01.2016 04:00 6,1 C 98 % 1025,5 hPa 0,0 l/m 0,0 km/h (0 Bft) S-SW 202 0 min 0,000 mm 0,0 UV-I 0 W/m 5,8 C 6,1 C 1,6 km/h (1 Bft) 98,35 %
29.01.2016 04:05 5,9 C 98 % 1025,5 hPa 0,2 l/m 0,0 km/h (0 Bft) S-SW 202 0 min 0,000 mm 0,0 UV-I 0 W/m 5,6 C 5,9 C 0,0 km/h (0 Bft) 100,00 %
29.01.2016 04:10 5,8 C 98 % 1025,5 hPa 0,0 l/m 0,0 km/h (0 Bft) S-SW 202 0 min 0,000 mm 0,0 UV-I 0 W/m 5,5 C 5,8 C 1,6 km/h (1 Bft) 98,33 %
29.01.2016 04:15 5,8 C 98 % 1025,5 hPa 0,0 l/m 0,0 km/h (0 Bft) S-SW 202 0 min 0,000 mm 0,0 UV-I 0 W/m 5,5 C 5,8 C 1,6 km/h (1 Bft) 95,87 %
29.01.2016 04:20 6,0 C 98 % 1025,6 hPa 0,0 l/m 0,0 km/h (0 Bft) S-SW 202 0 min 0,000 mm 0,0 UV-I 0 W/m 5,7 C 6,0 C 1,6 km/h (1 Bft) 97,94 %
29.01.2016 04:25 6,1 C 98 % 1025,7 hPa 0,0 l/m 0,2 km/h (0 Bft) S-SW 202 0 min 0,000 mm 0,0 UV-I 0 W/m 5,8 C 6,1 C 1,6 km/h (1 Bft) 97,83 %
29.01.2016 04:30 6,1 C 98 % 1025,7 hPa 0,4 l/m 0,1 km/h (0 Bft) S-SW 202 0 min 0,000 mm 0,0 UV-I 0 W/m 5,8 C 6,1 C 1,6 km/h (1 Bft) 96,52 %
29.01.2016 04:35 5,9 C 98 % 1025,8 hPa 0,0 l/m 0,4 km/h (0 Bft) S-SW 202 0 min 0,000 mm 0,0 UV-I 0 W/m 5,6 C 5,9 C 1,6 km/h (1 Bft) 96,30 %
29.01.2016 04:40 5,7 C 98 % 1026,0 hPa 0,2 l/m 0,9 km/h (0 Bft) NW 315 0 min 0,000 mm 0,0 UV-I 0 W/m 5,4 C 5,7 C 3,2 km/h (1 Bft) 97,52 %
29.01.2016 04:45 5,5 C 98 % 1025,8 hPa 0,2 l/m 1,3 km/h (1 Bft) SO 137 0 min 0,000 mm 0,0 UV-I 0 W/m 5,2 C 5,5 C 4,8 km/h (1 Bft) 99,13 %
29.01.2016 04:50 5,8 C 98 % 1026,0 hPa 0,0 l/m 2,1 km/h (1 Bft) S-SW 194 0 min 0,000 mm 0,0 UV-I 0 W/m 5,5 C 5,8 C 6,4 km/h (2 Bft) 98,41 %
29.01.2016 04:55 5,9 C 98 % 1025,9 hPa 0,0 l/m 0,4 km/h (0 Bft) S-SW 194 0 min 0,000 mm 0,0 UV-I 0 W/m 5,6 C 5,9 C 3,2 km/h (1 Bft) 100,00 %
29.01.2016 05:00 5,9 C 98 % 1026,0 hPa 0,2 l/m 0,1 km/h (0 Bft) S-SW 194 0 min 0,000 mm 0,0 UV-I 0 W/m 5,6 C 5,9 C 1,6 km/h (1 Bft) 98,21 %
29.01.2016 05:05 6,0 C 98 % 1026,0 hPa 0,0 l/m 0,0 km/h (0 Bft) S-SW 194 0 min 0,000 mm 0,0 UV-I 0 W/m 5,7 C 6,0 C 1,6 km/h (1 Bft) 97,44 %
29.01.2016 05:10 5,9 C 98 % 1026,2 hPa 0,2 l/m 0,1 km/h (0 Bft) S-SW 194 0 min 0,000 mm 0,0 UV-I 0 W/m 5,6 C 5,9 C 1,6 km/h (1 Bft) 99,17 %
29.01.2016 05:15 5,8 C 98 % 1026,3 hPa 0,2 l/m 0,1 km/h (0 Bft) S-SW 194 0 min 0,000 mm 0,0 UV-I 0 W/m 5,5 C 5,8 C 1,6 km/h (1 Bft) 99,12 %
29.01.2016 05:20 5,8 C 98 % 1026,3 hPa 0,2 l/m 0,2 km/h (0 Bft) S-SW 194 0 min 0,000 mm 0,0 UV-I 0 W/m 5,5 C 5,8 C 1,6 km/h (1 Bft) 99,17 %
29.01.2016 05:25 5,9 C 99 % 1026,3 hPa 0,2 l/m 2,3 km/h (1 Bft) W-NW 288 0 min 0,000 mm 0,0 UV-I 0 W/m 5,8 C 5,9 C 4,8 km/h (1 Bft) 100,00 %
29.01.2016 05:30 5,9 C 99 % 1026,4 hPa 0,2 l/m 2,6 km/h (1 Bft) W 275 0 min 0,000 mm 0,0 UV-I 0 W/m 5,8 C 5,9 C 6,4 km/h (2 Bft) 100,00 %
29.01.2016 05:35 5,9 C 99 % 1026,5 hPa 0,0 l/m 3,1 km/h (1 Bft) W-NW 303 0 min 0,000 mm 0,0 UV-I 0 W/m 5,8 C 5,9 C 6,4 km/h (2 Bft) 99,11 %
29.01.2016 05:40 5,9 C 99 % 1026,4 hPa 0,2 l/m 2,5 km/h (1 Bft) W-NW 282 0 min 0,000 mm 0,0 UV-I 0 W/m 5,8 C 5,9 C 6,4 km/h (2 Bft) 99,15 %
29.01.2016 05:45 6,0 C 99 % 1026,4 hPa 0,0 l/m 1,2 km/h (1 Bft) W-SW 252 0 min 0,000 mm 0,0 UV-I 0 W/m 5,9 C 6,0 C 4,8 km/h (1 Bft) 97,62 %
29.01.2016 05:50 5,9 C 99 % 1026,4 hPa 0,2 l/m 3,4 km/h (1 Bft) S 190 0 min 0,000 mm 0,0 UV-I 0 W/m 5,8 C 5,9 C 4,8 km/h (1 Bft) 99,11 %
29.01.2016 05:55 5,9 C 99 % 1026,4 hPa 0,0 l/m 3,4 km/h (1 Bft) S-SW 198 0 min 0,000 mm 0,0 UV-I 0 W/m 5,8 C 5,9 C 6,4 km/h (2 Bft) 100,00 %
29.01.2016 06:00 5,9 C 99 % 1026,6 hPa 0,0 l/m 3,4 km/h (1 Bft) S-SW 198 0 min 0,000 mm 0,0 UV-I 0 W/m 5,8 C 5,9 C 6,4 km/h (2 Bft) 100,00 %
29.01.2016 06:05 5,9 C 99 % 1026,6 hPa 0,2 l/m 3,8 km/h (1 Bft) SW 229 0 min 0,000 mm 0,0 UV-I 0 W/m 5,8 C 5,9 C 6,4 km/h (2 Bft) 99,17 %
29.01.2016 06:10 5,9 C 99 % 1026,7 hPa 0,0 l/m 3,6 km/h (1 Bft) W-SW 252 0 min 0,000 mm 0,0 UV-I 0 W/m 5,8 C 5,9 C 6,4 km/h (2 Bft) 99,12 %
29.01.2016 06:15 5,8 C 99 % 1026,6 hPa 0,2 l/m 3,0 km/h (1 Bft) SW 215 0 min 0,000 mm 0,0 UV-I 0 W/m 5,7 C 5,8 C 4,8 km/h (1 Bft) 96,69 %
29.01.2016 06:20 5,8 C 98 % 1026,7 hPa 0,0 l/m 3,0 km/h (1 Bft) SW 218 0 min 0,000 mm 0,0 UV-I 0 W/m 5,5 C 5,8 C 4,8 km/h (1 Bft) 98,21 %
29.01.2016 06:26 5,8 C 98 % 1026,9 hPa 0,0 l/m 3,4 km/h (1 Bft) W-SW 250 0 min 0,000 mm 0,0 UV-I 0 W/m 5,5 C 5,8 C 4,8 km/h (1 Bft) 97,16 %
29.01.2016 06:30 5,8 C 98 % 1026,9 hPa 0,0 l/m 4,1 km/h (1 Bft) W-SW 257 0 min 0,000 mm 0,0 UV-I 0 W/m 5,5 C 5,8 C 6,4 km/h (2 Bft) 97,94 %
29.01.2016 06:35 5,8 C 98 % 1027,0 hPa 0,2 l/m 4,0 km/h (1 Bft) W 271 0 min 0,000 mm 0,0 UV-I 0 W/m 5,5 C 5,8 C 4,8 km/h (1 Bft) 95,93 %
29.01.2016 06:40 5,8 C 98 % 1027,1 hPa 0,2 l/m 3,7 km/h (1 Bft) W 259 0 min 0,000 mm 0,0 UV-I 0 W/m 5,5 C 5,8 C 6,4 km/h (2 Bft) 94,64 %
29.01.2016 06:45 5,8 C 98 % 1027,2 hPa 0,0 l/m 4,2 km/h (1 Bft) W 261 0 min 0,000 mm 0,0 UV-I 0 W/m 5,5 C 5,8 C 6,4 km/h (2 Bft) 97,52 %
29.01.2016 06:50 5,9 C 99 % 1027,2 hPa 0,0 l/m 4,3 km/h (1 Bft) W 261 0 min 0,000 mm 0,0 UV-I 0 W/m 5,8 C 5,9 C 8,0 km/h (2 Bft) 99,17 %
29.01.2016 06:55 5,9 C 99 % 1027,2 hPa 0,2 l/m 4,2 km/h (1 Bft) W-SW 257 0 min 0,000 mm 0,0 UV-I 0 W/m 5,8 C 5,9 C 6,4 km/h (2 Bft) 98,17 %
29.01.2016 07:00 5,9 C 99 % 1027,3 hPa 0,0 l/m 4,8 km/h (1 Bft) W-SW 243 0 min 0,000 mm 0,0 UV-I 0 W/m 5,8 C 5,9 C 11,3 km/h (2 Bft) 100,00 %
29.01.2016 07:05 5,8 C 99 % 1027,3 hPa 0,0 l/m 5,3 km/h (1 Bft) W 264 0 min 0,000 mm 0,0 UV-I 0 W/m 5,7 C 5,8 C 9,7 km/h (2 Bft) 100,00 %
29.01.2016 07:10 5,8 C 99 % 1027,5 hPa 0,0 l/m 5,3 km/h (1 Bft) SW 234 0 min 0,000 mm 0,0 UV-I 0 W/m 5,7 C 5,8 C 11,3 km/h (2 Bft) 99,15 %
29.01.2016 07:15 5,8 C 98 % 1027,5 hPa 0,0 l/m 5,2 km/h (1 Bft) W-SW 253 0 min 0,000 mm 0,0 UV-I 0 W/m 5,5 C 5,8 C 11,3 km/h (2 Bft) 99,19 %
29.01.2016 07:20 5,8 C 98 % 1027,7 hPa 0,0 l/m 5,1 km/h (1 Bft) W 265 0 min 0,000 mm 0,0 UV-I 0 W/m 5,5 C 5,8 C 9,7 km/h (2 Bft) 99,15 %
29.01.2016 07:25 5,8 C 98 % 1027,8 hPa 0,2 l/m 4,9 km/h (1 Bft) W 273 0 min 0,000 mm 0,0 UV-I 0 W/m 5,5 C 5,8 C 9,7 km/h (2 Bft) 100,00 %
29.01.2016 07:30 5,8 C 98 % 1027,8 hPa 0,0 l/m 5,1 km/h (1 Bft) W 270 0 min 0,000 mm 0,0 UV-I 0 W/m 5,5 C 5,8 C 9,7 km/h (2 Bft) 100,00 %
29.01.2016 07:35 5,8 C 98 % 1027,9 hPa 0,0 l/m 5,1 km/h (1 Bft) W 269 0 min 0,000 mm 0,0 UV-I 0 W/m 5,5 C 5,8 C 8,0 km/h (2 Bft) 97,69 %
29.01.2016 07:40 5,8 C 98 % 1028,0 hPa 0,0 l/m 5,6 km/h (1 Bft) W-SW 255 0 min 0,000 mm 0,0 UV-I 0 W/m 5,5 C 5,8 C 11,3 km/h (2 Bft) 100,00 %
29.01.2016 07:45 5,8 C 98 % 1028,0 hPa 0,0 l/m 6,3 km/h (2 Bft) W 262 0 min 0,000 mm 0,0 UV-I 0 W/m 5,5 C 5,8 C 11,3 km/h (2 Bft) 100,00 %
29.01.2016 07:50 5,8 C 98 % 1028,1 hPa 0,0 l/m 4,3 km/h (1 Bft) W 267 0 min 0,000 mm 0,0 UV-I 0 W/m 5,5 C 5,8 C 9,7 km/h (2 Bft) 99,13 %
29.01.2016 07:55 5,8 C 98 % 1028,2 hPa 0,0 l/m 4,9 km/h (1 Bft) W 281 0 min 0,000 mm 0,0 UV-I 0 W/m 5,5 C 5,8 C 12,9 km/h (3 Bft) 98,41 %
29.01.2016 08:00 5,8 C 98 % 1028,3 hPa 0,0 l/m 6,0 km/h (2 Bft) W-NW 282 0 min 0,000 mm 0,0 UV-I 1 W/m 5,5 C 5,8 C 12,9 km/h (3 Bft) 99,13 %
29.01.2016 08:05 5,8 C 98 % 1028,4 hPa 0,0 l/m 5,4 km/h (1 Bft) W-SW 255 0 min 0,000 mm 0,0 UV-I 5 W/m 5,5 C 5,8 C 11,3 km/h (2 Bft) 99,13 %
29.01.2016 08:10 5,7 C 98 % 1028,4 hPa 0,0 l/m 4,4 km/h (1 Bft) W 264 0 min 0,000 mm 0,0 UV-I 7 W/m 5,4 C 5,7 C 12,9 km/h (3 Bft) 97,56 %
29.01.2016 08:15 5,7 C 98 % 1028,3 hPa 0,0 l/m 4,4 km/h (1 Bft) W 273 0 min 0,000 mm 0,0 UV-I 13 W/m 5,4 C 5,7 C 11,3 km/h (2 Bft) 100,00 %
29.01.2016 08:20 5,7 C 98 % 1028,4 hPa 0,0 l/m 4,3 km/h (1 Bft) W 279 0 min 0,000 mm 0,0 UV-I 16 W/m 5,4 C 5,7 C 12,9 km/h (3 Bft) 98,21 %
29.01.2016 08:25 5,7 C 98 % 1028,5 hPa 0,0 l/m 5,1 km/h (1 Bft) W-NW 295 0 min 0,000 mm 0,0 UV-I 17 W/m 5,4 C 5,7 C 14,5 km/h (3 Bft) 96,75 %
29.01.2016 08:30 5,7 C 98 % 1028,5 hPa 0,0 l/m 5,5 km/h (1 Bft) W 271 0 min 0,000 mm 0,0 UV-I 22 W/m 5,4 C 5,7 C 11,3 km/h (2 Bft) 94,00 %
29.01.2016 08:40 5,7 C 98 % 1028,5 hPa 0,0 l/m 6,4 km/h (2 Bft) W 281 0 min 0,000 mm 0,0 UV-I 25 W/m 5,4 C 5,7 C 12,9 km/h (3 Bft) 97,65 %
29.01.2016 08:45 5,8 C 98 % 1028,6 hPa 0,0 l/m 6,7 km/h (2 Bft) N-NW 333 0 min 0,000 mm 0,0 UV-I 23 W/m 5,5 C 5,6 C 16,1 km/h (3 Bft) 97,58 %
29.01.2016 08:50 5,7 C 98 % 1028,8 hPa 0,0 l/m 5,3 km/h (1 Bft) NW 315 0 min 0,000 mm 0,0 UV-I 20 W/m 5,4 C 5,7 C 12,9 km/h (3 Bft) 96,49 %
29.01.2016 08:55 5,8 C 98 % 1028,9 hPa 0,0 l/m 4,8 km/h (1 Bft) W-SW 252 0 min 0,000 mm 0,0 UV-I 12 W/m 5,5 C 5,8 C 11,3 km/h (2 Bft) 99,13 %
29.01.2016 09:00 5,8 C 98 % 1029,1 hPa 0,0 l/m 7,0 km/h (2 Bft) W-NW 296 0 min 0,000 mm 0,0 UV-I 11 W/m 5,5 C 5,3 C 14,5 km/h (3 Bft) 100,00 %
29.01.2016 09:05 5,7 C 98 % 1029,2 hPa 0,0 l/m 5,7 km/h (1 Bft) W 274 0 min 0,000 mm 0,0 UV-I 10 W/m 5,4 C 5,7 C 12,9 km/h (3 Bft) 97,50 %
29.01.2016 09:10 5,7 C 98 % 1029,3 hPa 0,0 l/m 4,7 km/h (1 Bft) W 261 0 min 0,000 mm 0,0 UV-I 15 W/m 5,4 C 5,7 C 11,3 km/h (2 Bft) 100,00 %
29.01.2016 09:15 5,8 C 98 % 1029,5 hPa 0,0 l/m 5,6 km/h (1 Bft) W 265 0 min 0,000 mm 0,0 UV-I 16 W/m 5,5 C 5,8 C 12,9 km/h (3 Bft) 100,00 %
29.01.2016 09:20 5,8 C 98 % 1029,5 hPa 0,0 l/m 6,5 km/h (2 Bft) W 264 0 min 0,000 mm 0,0 UV-I 9 W/m 5,5 C 5,7 C 14,5 km/h (3 Bft) 100,00 %
29.01.2016 09:25 5,8 C 98 % 1029,5 hPa 0,0 l/m 5,8 km/h (2 Bft) W-SW 258 0 min 0,000 mm 0,0 UV-I 16 W/m 5,5 C 5,8 C 14,5 km/h (3 Bft) 99,11 %
29.01.2016 09:30 5,8 C 98 % 1029,4 hPa 0,0 l/m 6,1 km/h (2 Bft) W 260 0 min 0,000 mm 0,0 UV-I 24 W/m 5,5 C 5,8 C 11,3 km/h (2 Bft) 98,37 %
29.01.2016 09:35 5,8 C 98 % 1029,4 hPa 0,0 l/m 7,1 km/h (2 Bft) W 269 0 min 0,000 mm 0,0 UV-I 38 W/m 5,5 C 5,2 C 14,5 km/h (3 Bft) 100,00 %
29.01.2016 09:40 5,9 C 98 % 1029,5 hPa 0,0 l/m 6,8 km/h (2 Bft) W 265 0 min 0,000 mm 0,0 UV-I 43 W/m 5,6 C 5,6 C 11,3 km/h (2 Bft) 100,00 %
29.01.2016 09:45 5,9 C 98 % 1029,5 hPa 0,0 l/m 7,7 km/h (2 Bft) W-SW 242 0 min 0,000 mm 0,0 UV-I 44 W/m 5,6 C 4,8 C 12,9 km/h (3 Bft) 99,19 %
29.01.2016 09:50 6,0 C 98 % 1029,5 hPa 0,0 l/m 7,7 km/h (2 Bft) W 276 0 min 0,000 mm 0,0 UV-I 47 W/m 5,7 C 4,9 C 14,5 km/h (3 Bft) 100,00 %
29.01.2016 09:55 6,1 C 98 % 1029,5 hPa 0,0 l/m 7,9 km/h (2 Bft) W-NW 284 0 min 0,000 mm 0,0 UV-I 40 W/m 5,8 C 4,8 C 16,1 km/h (3 Bft) 99,10 %
29.01.2016 10:00 6,1 C 98 % 1029,5 hPa 0,0 l/m 7,6 km/h (2 Bft) W 280 0 min 0,025 mm 0,0 UV-I 58 W/m 5,8 C 5,1 C 16,1 km/h (3 Bft) 99,15 %
29.01.2016 10:05 6,2 C 98 % 1029,7 hPa 0,0 l/m 10,2 km/h (2 Bft) W 273 0 min 0,000 mm 0,0 UV-I 44 W/m 5,9 C 3,3 C 16,1 km/h (3 Bft) 97,64 %
29.01.2016 10:10 6,2 C 98 % 1029,7 hPa 0,0 l/m 6,6 km/h (2 Bft) W-SW 245 0 min 0,000 mm 0,0 UV-I 48 W/m 5,9 C 6,1 C 14,5 km/h (3 Bft) 99,12 %
29.01.2016 10:15 6,3 C 97 % 1029,9 hPa 0,0 l/m 9,2 km/h (2 Bft) W 259 0 min 0,000 mm 0,0 UV-I 39 W/m 5,9 C 4,1 C 19,3 km/h (3 Bft) 98,35 %
29.01.2016 10:20 6,3 C 97 % 1030,0 hPa 0,0 l/m 11,2 km/h (2 Bft) W-SW 255 0 min 0,000 mm 0,0 UV-I 34 W/m 5,9 C 2,7 C 16,1 km/h (3 Bft) 100,00 %
29.01.2016 10:25 6,3 C 96 % 1030,0 hPa 0,0 l/m 9,9 km/h (2 Bft) W-SW 257 0 min 0,000 mm 0,0 UV-I 32 W/m 5,7 C 3,6 C 20,9 km/h (4 Bft) 97,56 %
29.01.2016 10:30 6,3 C 96 % 1030,1 hPa 0,0 l/m 8,9 km/h (2 Bft) W 260 0 min 0,000 mm 0,0 UV-I 45 W/m 5,7 C 4,3 C 14,5 km/h (3 Bft) 97,39 %
29.01.2016 10:35 6,3 C 96 % 1030,2 hPa 0,0 l/m 7,6 km/h (2 Bft) W-SW 246 0 min 0,000 mm 0,0 UV-I 57 W/m 5,7 C 5,3 C 12,9 km/h (3 Bft) 97,17 %
29.01.2016 10:40 6,4 C 95 % 1030,2 hPa 0,0 l/m 6,4 km/h (2 Bft) W 268 0 min 0,000 mm 0,0 UV-I 92 W/m 5,7 C 6,4 C 14,5 km/h (3 Bft) 97,04 %
29.01.2016 10:45 6,5 C 96 % 1030,2 hPa 0,0 l/m 5,4 km/h (1 Bft) W-SW 251 0 min 0,000 mm 0,0 UV-I 108 W/m 5,9 C 6,5 C 11,3 km/h (2 Bft) 97,39 %
29.01.2016 10:50 6,6 C 95 % 1030,2 hPa 0,0 l/m 7,2 km/h (2 Bft) W 279 0 min 0,000 mm 0,0 UV-I 96 W/m 5,9 C 5,9 C 11,3 km/h (2 Bft) 96,40 %
29.01.2016 10:55 6,7 C 95 % 1030,1 hPa 0,0 l/m 6,9 km/h (2 Bft) W-SW 248 0 min 0,000 mm 0,0 UV-I 85 W/m 6,0 C 6,3 C 12,9 km/h (3 Bft) 97,64 %
29.01.2016 11:00 6,8 C 94 % 1030,1 hPa 0,0 l/m 8,5 km/h (2 Bft) W 259 0 min 0,026 mm 0,6 UV-I 132 W/m 5,9 C 5,1 C 16,1 km/h (3 Bft) 97,09 %
29.01.2016 11:05 6,9 C 94 % 1030,1 hPa 0,0 l/m 7,6 km/h (2 Bft) W-SW 250 0 min 0,000 mm 0,5 UV-I 135 W/m 6,0 C 5,9 C 14,5 km/h (3 Bft) 98,52 %
29.01.2016 11:10 6,9 C 92 % 1030,0 hPa 0,0 l/m 8,1 km/h (2 Bft) W-SW 237 0 min 0,000 mm 0,5 UV-I 100 W/m 5,7 C 5,5 C 14,5 km/h (3 Bft) 99,13 %
29.01.2016 11:15 7,0 C 92 % 1030,0 hPa 0,0 l/m 9,8 km/h (2 Bft) W-SW 239 0 min 0,000 mm 0,2 UV-I 92 W/m 5,8 C 4,4 C 19,3 km/h (3 Bft) 100,00 %
29.01.2016 11:20 6,9 C 91 % 1030,1 hPa 0,0 l/m 14,0 km/h (3 Bft) W-SW 253 0 min 0,000 mm 0,0 UV-I 75 W/m 5,5 C 1,9 C 25,7 km/h (4 Bft) 99,15 %
29.01.2016 11:25 6,9 C 91 % 1030,1 hPa 0,0 l/m 10,5 km/h (2 Bft) W 264 0 min 0,000 mm 0,0 UV-I 64 W/m 5,5 C 3,8 C 17,7 km/h (3 Bft) 98,35 %
29.01.2016 11:30 6,8 C 90 % 1029,9 hPa 0,0 l/m 12,6 km/h (3 Bft) W 265 0 min 0,000 mm 0,0 UV-I 78 W/m 5,3 C 2,5 C 19,3 km/h (3 Bft) 100,00 %
29.01.2016 11:35 6,8 C 89 % 1029,9 hPa 0,0 l/m 11,9 km/h (2 Bft) W 273 0 min 0,000 mm 0,0 UV-I 85 W/m 5,1 C 2,9 C 22,5 km/h (4 Bft) 98,31 %
29.01.2016 11:40 6,7 C 90 % 1029,8 hPa 0,0 l/m 10,8 km/h (2 Bft) W-SW 240 0 min 0,000 mm 0,3 UV-I 114 W/m 5,2 C 3,4 C 17,7 km/h (3 Bft) 100,00 %
29.01.2016 11:45 6,8 C 90 % 1029,6 hPa 0,0 l/m 9,3 km/h (2 Bft) W 279 0 min 0,000 mm 0,7 UV-I 160 W/m 5,3 C 4,5 C 16,1 km/h (3 Bft) 97,25 %
29.01.2016 11:50 6,9 C 89 % 1029,5 hPa 0,0 l/m 10,7 km/h (2 Bft) W-NW 284 0 min 0,000 mm 0,6 UV-I 149 W/m 5,2 C 3,7 C 16,1 km/h (3 Bft) 100,00 %
29.01.2016 11:55 6,9 C 90 % 1029,6 hPa 0,0 l/m 7,8 km/h (2 Bft) W-SW 250 0 min 0,000 mm 0,5 UV-I 115 W/m 5,4 C 5,8 C 12,9 km/h (3 Bft) 99,15 %
29.01.2016 12:00 6,9 C 90 % 1029,4 hPa 0,0 l/m 7,9 km/h (2 Bft) W-SW 243 0 min 0,051 mm 0,0 UV-I 94 W/m 5,4 C 5,7 C 12,9 km/h (3 Bft) 100,00 %
29.01.2016 12:05 6,8 C 90 % 1029,3 hPa 0,0 l/m 5,7 km/h (1 Bft) W-SW 257 0 min 0,000 mm 0,3 UV-I 108 W/m 5,3 C 6,8 C 12,9 km/h (3 Bft) 99,13 %
29.01.2016 12:10 6,9 C 91 % 1029,4 hPa 0,0 l/m 5,0 km/h (1 Bft) W 263 0 min 0,000 mm 0,5 UV-I 127 W/m 5,5 C 6,9 C 14,5 km/h (3 Bft) 98,37 %
29.01.2016 12:15 7,1 C 91 % 1029,4 hPa 0,0 l/m 5,3 km/h (1 Bft) NW 308 0 min 0,000 mm 0,6 UV-I 148 W/m 5,7 C 7,1 C 9,7 km/h (2 Bft) 98,26 %
29.01.2016 12:20 7,1 C 91 % 1029,4 hPa 0,0 l/m 3,4 km/h (1 Bft) W 275 0 min 0,000 mm 0,7 UV-I 158 W/m 5,7 C 7,1 C 9,7 km/h (2 Bft) 99,13 %
29.01.2016 12:25 7,2 C 91 % 1029,4 hPa 0,0 l/m 5,6 km/h (1 Bft) W 281 0 min 0,000 mm 0,7 UV-I 142 W/m 5,8 C 7,2 C 12,9 km/h (3 Bft) 98,29 %
29.01.2016 12:30 7,2 C 90 % 1029,4 hPa 0,0 l/m 6,9 km/h (2 Bft) W-NW 298 0 min 0,000 mm 0,6 UV-I 139 W/m 5,7 C 6,8 C 14,5 km/h (3 Bft) 96,33 %
29.01.2016 12:35 7,3 C 89 % 1029,4 hPa 0,0 l/m 6,1 km/h (2 Bft) W 272 0 min 0,000 mm 0,7 UV-I 146 W/m 5,6 C 7,3 C 11,3 km/h (2 Bft) 97,62 %
29.01.2016 12:40 7,3 C 90 % 1029,4 hPa 0,0 l/m 5,5 km/h (1 Bft) W-NW 290 0 min 0,000 mm 0,6 UV-I 148 W/m 5,8 C 7,3 C 11,3 km/h (2 Bft) 97,25 %
29.01.2016 12:45 7,4 C 89 % 1029,5 hPa 0,0 l/m 5,4 km/h (1 Bft) W-SW 252 0 min 0,000 mm 0,6 UV-I 126 W/m 5,7 C 7,4 C 11,3 km/h (2 Bft) 96,69 %
29.01.2016 12:50 7,3 C 89 % 1029,5 hPa 0,0 l/m 7,1 km/h (2 Bft) W 265 0 min 0,000 mm 0,5 UV-I 104 W/m 5,6 C 6,7 C 16,1 km/h (3 Bft) 96,03 %
29.01.2016 12:55 7,3 C 89 % 1029,5 hPa 0,0 l/m 4,5 km/h (1 Bft) W-NW 298 0 min 0,000 mm 0,0 UV-I 94 W/m 5,6 C 7,3 C 11,3 km/h (2 Bft) 97,25 %
29.01.2016 13:00 7,2 C 88 % 1029,4 hPa 0,0 l/m 7,6 km/h (2 Bft) W 267 0 min 0,050 mm 0,0 UV-I 86 W/m 5,3 C 6,2 C 17,7 km/h (3 Bft) 98,35 %
29.01.2016 13:05 7,1 C 89 % 1029,4 hPa 0,0 l/m 5,6 km/h (1 Bft) W-SW 251 0 min 0,000 mm 0,0 UV-I 88 W/m 5,4 C 7,1 C 14,5 km/h (3 Bft) 97,37 %
29.01.2016 13:10 7,1 C 90 % 1029,4 hPa 0,0 l/m 3,2 km/h (1 Bft) W-NW 288 0 min 0,000 mm 0,0 UV-I 96 W/m 5,6 C 7,1 C 9,7 km/h (2 Bft) 99,15 %
29.01.2016 13:15 7,1 C 90 % 1029,3 hPa 0,0 l/m 5,2 km/h (1 Bft) W-NW 291 0 min 0,000 mm 0,2 UV-I 112 W/m 5,6 C 7,1 C 16,1 km/h (3 Bft) 97,44 %
29.01.2016 13:20 7,1 C 90 % 1029,2 hPa 0,0 l/m 5,1 km/h (1 Bft) W-NW 286 0 min 0,000 mm 0,6 UV-I 143 W/m 5,6 C 7,1 C 12,9 km/h (3 Bft) 99,19 %
29.01.2016 13:25 7,1 C 90 % 1029,2 hPa 0,0 l/m 5,1 km/h (1 Bft) W 263 0 min 0,000 mm 0,7 UV-I 164 W/m 5,6 C 7,1 C 12,9 km/h (3 Bft) 99,08 %
29.01.2016 13:30 7,2 C 90 % 1029,2 hPa 0,0 l/m 4,8 km/h (1 Bft) W-NW 290 0 min 0,000 mm 0,7 UV-I 155 W/m 5,7 C 7,2 C 12,9 km/h (3 Bft) 100,00 %
29.01.2016 13:35 7,2 C 90 % 1029,2 hPa 0,0 l/m 3,5 km/h (1 Bft) N-NW 346 0 min 0,000 mm 0,7 UV-I 169 W/m 5,7 C 7,2 C 9,7 km/h (2 Bft) 100,00 %
29.01.2016 13:40 7,3 C 90 % 1029,2 hPa 0,0 l/m 3,7 km/h (1 Bft) W 261 0 min 0,000 mm 0,6 UV-I 167 W/m 5,8 C 7,3 C 11,3 km/h (2 Bft) 99,21 %
29.01.2016 13:45 7,3 C 89 % 1029,3 hPa 0,0 l/m 3,0 km/h (1 Bft) W-NW 291 0 min 0,000 mm 0,6 UV-I 168 W/m 5,6 C 7,3 C 6,4 km/h (2 Bft) 99,19 %
29.01.2016 13:50 7,3 C 90 % 1029,4 hPa 0,0 l/m 3,6 km/h (1 Bft) W-SW 258 0 min 0,000 mm 0,6 UV-I 180 W/m 5,8 C 7,3 C 11,3 km/h (2 Bft) 100,00 %
29.01.2016 13:55 7,3 C 89 % 1029,3 hPa 0,0 l/m 3,6 km/h (1 Bft) W-NW 283 0 min 0,000 mm 0,5 UV-I 150 W/m 5,6 C 7,3 C 11,3 km/h (2 Bft) 99,19 %
29.01.2016 14:00 7,2 C 89 % 1029,4 hPa 0,0 l/m 5,0 km/h (1 Bft) W 279 0 min 0,000 mm 0,3 UV-I 146 W/m 5,5 C 7,2 C 12,9 km/h (3 Bft) 97,39 %
29.01.2016 14:05 7,2 C 89 % 1029,4 hPa 0,0 l/m 5,3 km/h (1 Bft) W-NW 284 0 min 0,077 mm 0,3 UV-I 145 W/m 5,5 C 7,2 C 12,9 km/h (3 Bft) 99,13 %
29.01.2016 14:10 7,3 C 89 % 1029,4 hPa 0,0 l/m 5,8 km/h (2 Bft) W 279 0 min 0,000 mm 0,0 UV-I 121 W/m 5,6 C 7,3 C 11,3 km/h (2 Bft) 99,10 %
29.01.2016 14:15 7,2 C 89 % 1029,5 hPa 0,0 l/m 5,5 km/h (1 Bft) NW 324 0 min 0,000 mm 0,0 UV-I 78 W/m 5,5 C 7,2 C 12,9 km/h (3 Bft) 98,35 %
29.01.2016 14:20 7,1 C 89 % 1029,5 hPa 0,0 l/m 6,2 km/h (2 Bft) W-SW 255 0 min 0,000 mm 0,0 UV-I 61 W/m 5,4 C 7,1 C 11,3 km/h (2 Bft) 98,26 %
29.01.2016 14:25 7,0 C 90 % 1029,6 hPa 0,0 l/m 6,1 km/h (2 Bft) W-NW 291 0 min 0,000 mm 0,0 UV-I 60 W/m 5,5 C 7,0 C 11,3 km/h (2 Bft) 99,19 %
29.01.2016 14:30 7,0 C 89 % 1029,6 hPa 0,0 l/m 4,2 km/h (1 Bft) W 270 0 min 0,000 mm 0,0 UV-I 77 W/m 5,3 C 7,0 C 9,7 km/h (2 Bft) 98,17 %
29.01.2016 14:35 7,1 C 90 % 1029,7 hPa 0,0 l/m 4,1 km/h (1 Bft) W 273 0 min 0,000 mm 0,0 UV-I 78 W/m 5,6 C 7,1 C 6,4 km/h (2 Bft) 97,56 %
29.01.2016 14:40 7,0 C 89 % 1029,7 hPa 0,0 l/m 4,9 km/h (1 Bft) NW 313 0 min 0,000 mm 0,0 UV-I 76 W/m 5,3 C 7,0 C 11,3 km/h (2 Bft) 96,61 %
29.01.2016 14:45 7,0 C 90 % 1029,7 hPa 0,0 l/m 4,5 km/h (1 Bft) W 267 0 min 0,000 mm 0,0 UV-I 69 W/m 5,5 C 7,0 C 6,4 km/h (2 Bft) 95,65 %
29.01.2016 14:50 7,0 C 90 % 1029,8 hPa 0,0 l/m 3,9 km/h (1 Bft) W-NW 300 0 min 0,000 mm 0,0 UV-I 82 W/m 5,5 C 7,0 C 9,7 km/h (2 Bft) 96,75 %
29.01.2016 14:55 7,1 C 89 % 1029,8 hPa 0,0 l/m 5,8 km/h (2 Bft) W-SW 256 0 min 0,000 mm 0,0 UV-I 132 W/m 5,4 C 7,1 C 12,9 km/h (3 Bft) 97,39 %
29.01.2016 15:00 7,1 C 89 % 1029,8 hPa 0,0 l/m 5,7 km/h (1 Bft) W 259 0 min 0,050 mm 0,0 UV-I 121 W/m 5,4 C 7,1 C 12,9 km/h (3 Bft) 97,46 %
29.01.2016 15:05 7,1 C 89 % 1029,7 hPa 0,0 l/m 3,7 km/h (1 Bft) W 261 0 min 0,000 mm 0,0 UV-I 129 W/m 5,4 C 7,1 C 11,3 km/h (2 Bft) 97,30 %
29.01.2016 15:10 7,2 C 89 % 1029,7 hPa 0,0 l/m 4,1 km/h (1 Bft) W-NW 284 5 min 0,000 mm 0,0 UV-I 160 W/m 5,5 C 7,2 C 6,4 km/h (2 Bft) 99,19 %
29.01.2016 15:15 7,3 C 88 % 1029,6 hPa 0,0 l/m 8,1 km/h (2 Bft) W 267 5 min 0,000 mm 0,0 UV-I 217 W/m 5,4 C 5,9 C 14,5 km/h (3 Bft) 99,06 %
29.01.2016 15:20 7,4 C 88 % 1029,6 hPa 0,0 l/m 5,0 km/h (1 Bft) SW 221 5 min 0,000 mm 0,0 UV-I 166 W/m 5,5 C 7,4 C 9,7 km/h (2 Bft) 99,19 %
29.01.2016 15:25 7,5 C 88 % 1029,6 hPa 0,0 l/m 6,1 km/h (2 Bft) W-SW 254 5 min 0,000 mm 0,0 UV-I 150 W/m 5,6 C 7,5 C 11,3 km/h (2 Bft) 98,31 %
29.01.2016 15:30 7,6 C 87 % 1029,6 hPa 0,0 l/m 5,8 km/h (2 Bft) W 261 5 min 0,000 mm 0,0 UV-I 133 W/m 5,6 C 7,6 C 9,7 km/h (2 Bft) 99,12 %
29.01.2016 15:35 7,4 C 88 % 1029,6 hPa 0,0 l/m 5,9 km/h (2 Bft) SW 236 0 min 0,000 mm 0,0 UV-I 65 W/m 5,5 C 7,4 C 11,3 km/h (2 Bft) 100,00 %
29.01.2016 15:40 7,3 C 89 % 1029,6 hPa 0,0 l/m 5,9 km/h (2 Bft) W 259 0 min 0,000 mm 0,0 UV-I 65 W/m 5,6 C 7,3 C 9,7 km/h (2 Bft) 100,00 %
29.01.2016 15:45 7,3 C 89 % 1029,5 hPa 0,0 l/m 5,0 km/h (1 Bft) W-SW 254 5 min 0,000 mm 0,0 UV-I 102 W/m 5,6 C 7,3 C 9,7 km/h (2 Bft) 99,22 %
29.01.2016 15:50 7,3 C 88 % 1029,5 hPa 0,0 l/m 3,7 km/h (1 Bft) S-SW 197 5 min 0,000 mm 0,0 UV-I 90 W/m 5,4 C 7,3 C 6,4 km/h (2 Bft) 98,17 %
29.01.2016 15:55 7,3 C 89 % 1029,5 hPa 0,0 l/m 5,0 km/h (1 Bft) S-SW 205 5 min 0,000 mm 0,0 UV-I 81 W/m 5,6 C 7,3 C 9,7 km/h (2 Bft) 100,00 %
29.01.2016 16:00 7,3 C 89 % 1029,4 hPa 0,0 l/m 4,8 km/h (1 Bft) S-SW 202 5 min 0,051 mm 0,0 UV-I 73 W/m 5,6 C 7,3 C 8,0 km/h (2 Bft) 99,15 %
29.01.2016 16:05 7,3 C 89 % 1029,5 hPa 0,0 l/m 3,9 km/h (1 Bft) S-SW 198 0 min 0,000 mm 0,0 UV-I 63 W/m 5,6 C 7,3 C 8,0 km/h (2 Bft) 98,35 %
29.01.2016 16:10 7,2 C 89 % 1029,5 hPa 0,0 l/m 4,6 km/h (1 Bft) S 184 0 min 0,000 mm 0,0 UV-I 54 W/m 5,5 C 7,2 C 6,4 km/h (2 Bft) 99,03 %
29.01.2016 16:15 7,2 C 90 % 1029,4 hPa 0,0 l/m 3,0 km/h (1 Bft) S 185 0 min 0,000 mm 0,0 UV-I 41 W/m 5,7 C 7,2 C 6,4 km/h (2 Bft) 98,45 %
29.01.2016 16:20 7,1 C 90 % 1029,4 hPa 0,0 l/m 1,3 km/h (1 Bft) S 185 0 min 0,000 mm 0,0 UV-I 29 W/m 5,6 C 7,1 C 4,8 km/h (1 Bft) 98,39 %
29.01.2016 16:25 7,0 C 90 % 1029,4 hPa 0,0 l/m 0,9 km/h (0 Bft) S 185 0 min 0,000 mm 0,0 UV-I 35 W/m 5,5 C 7,0 C 3,2 km/h (1 Bft) 98,15 %
29.01.2016 16:30 6,7 C 91 % 1029,3 hPa 0,0 l/m 0,5 km/h (0 Bft) S 185 5 min 0,000 mm 0,0 UV-I 32 W/m 5,3 C 6,7 C 1,6 km/h (1 Bft) 96,61 %
29.01.2016 16:35 6,7 C 92 % 1029,2 hPa 0,0 l/m 0,1 km/h (0 Bft) S 185 5 min 0,000 mm 0,0 UV-I 30 W/m 5,5 C 6,7 C 1,6 km/h (1 Bft) 98,37 %
29.01.2016 16:40 6,7 C 92 % 1029,2 hPa 0,0 l/m 0,0 km/h (0 Bft) S 185 5 min 0,000 mm 0,0 UV-I 22 W/m 5,5 C 6,7 C 0,0 km/h (0 Bft) 97,46 %
29.01.2016 16:45 6,4 C 93 % 1029,2 hPa 0,0 l/m 1,4 km/h (1 Bft) S 184 5 min 0,000 mm 0,0 UV-I 18 W/m 5,4 C 6,4 C 3,2 km/h (1 Bft) 96,61 %
29.01.2016 16:50 6,1 C 94 % 1029,2 hPa 0,0 l/m 0,2 km/h (0 Bft) S 184 0 min 0,000 mm 0,0 UV-I 15 W/m 5,2 C 6,1 C 1,6 km/h (1 Bft) 96,49 %
29.01.2016 16:55 5,8 C 94 % 1029,1 hPa 0,0 l/m 0,2 km/h (0 Bft) S 184 0 min 0,000 mm 0,0 UV-I 11 W/m 4,9 C 5,8 C 1,6 km/h (1 Bft) 97,52 %
29.01.2016 17:00 5,6 C 95 % 1029,1 hPa 0,0 l/m 0,0 km/h (0 Bft) S 184 0 min 0,026 mm 0,0 UV-I 7 W/m 4,9 C 5,6 C 1,6 km/h (1 Bft) 100,00 %
29.01.2016 17:05 5,4 C 95 % 1029,2 hPa 0,0 l/m 0,0 km/h (0 Bft) S 184 0 min 0,000 mm 0,0 UV-I 5 W/m 4,7 C 5,4 C 0,0 km/h (0 Bft) 98,29 %
29.01.2016 17:10 5,4 C 96 % 1029,2 hPa 0,0 l/m 1,4 km/h (1 Bft) S-SW 210 0 min 0,000 mm 0,0 UV-I 0 W/m 4,8 C 5,4 C 3,2 km/h (1 Bft) 99,13 %
29.01.2016 17:15 5,4 C 96 % 1029,1 hPa 0,0 l/m 0,6 km/h (0 Bft) S-SW 210 0 min 0,000 mm 0,0 UV-I 0 W/m 4,8 C 5,4 C 3,2 km/h (1 Bft) 100,00 %
29.01.2016 17:20 5,3 C 95 % 1029,2 hPa 0,0 l/m 0,0 km/h (0 Bft) S-SW 210 0 min 0,000 mm 0,0 UV-I 0 W/m 4,6 C 5,3 C 1,6 km/h (1 Bft) 100,00 %
29.01.2016 17:25 4,9 C 95 % 1029,2 hPa 0,0 l/m 0,6 km/h (0 Bft) S-SW 210 0 min 0,000 mm 0,0 UV-I 0 W/m 4,2 C 4,9 C 1,6 km/h (1 Bft) 99,19 %
29.01.2016 17:30 5,1 C 96 % 1029,2 hPa 0,0 l/m 2,1 km/h (1 Bft) S-SW 210 0 min 0,000 mm 0,0 UV-I 0 W/m 4,5 C 5,1 C 3,2 km/h (1 Bft) 99,08 %
29.01.2016 17:35 5,0 C 96 % 1029,1 hPa 0,0 l/m 3,5 km/h (1 Bft) S-SW 210 0 min 0,000 mm 0,0 UV-I 0 W/m 4,4 C 5,0 C 4,8 km/h (1 Bft) 100,00 %
29.01.2016 17:40 4,7 C 95 % 1029,1 hPa 0,0 l/m 3,3 km/h (1 Bft) SO 143 0 min 0,000 mm 0,0 UV-I 0 W/m 4,0 C 4,7 C 6,4 km/h (2 Bft) 98,21 %
29.01.2016 17:45 4,4 C 96 % 1029,1 hPa 0,0 l/m 2,3 km/h (1 Bft) SO 143 0 min 0,000 mm 0,0 UV-I 0 W/m 3,8 C 4,4 C 4,8 km/h (1 Bft) 98,37 %
29.01.2016 17:50 3,9 C 96 % 1029,1 hPa 0,0 l/m 2,2 km/h (1 Bft) SO 143 0 min 0,000 mm 0,0 UV-I 0 W/m 3,3 C 3,9 C 4,8 km/h (1 Bft) 99,17 %
29.01.2016 17:55 3,8 C 96 % 1029,0 hPa 0,0 l/m 3,5 km/h (1 Bft) O 98 0 min 0,000 mm 0,0 UV-I 0 W/m 3,2 C 3,8 C 4,8 km/h (1 Bft) 99,17 %
29.01.2016 18:00 4,6 C 98 % 1029,0 hPa 0,0 l/m 3,4 km/h (1 Bft) O-NO 67 0 min 0,000 mm 0,0 UV-I 0 W/m 4,3 C 4,6 C 6,4 km/h (2 Bft) 98,21 %
29.01.2016 18:05 4,8 C 98 % 1029,0 hPa 0,0 l/m 3,9 km/h (1 Bft) O-NO 68 0 min 0,000 mm 0,0 UV-I 0 W/m 4,5 C 4,8 C 6,4 km/h (2 Bft) 100,00 %
29.01.2016 18:10 4,2 C 96 % 1029,1 hPa 0,0 l/m 2,7 km/h (1 Bft) SO 135 0 min 0,000 mm 0,0 UV-I 0 W/m 3,6 C 4,2 C 6,4 km/h (2 Bft) 100,00 %
29.01.2016 18:15 3,9 C 96 % 1029,1 hPa 0,0 l/m 2,8 km/h (1 Bft) SO 135 0 min 0,000 mm 0,0 UV-I 0 W/m 3,3 C 3,9 C 4,8 km/h (1 Bft) 99,17 %
29.01.2016 18:20 3,8 C 97 % 1029,1 hPa 0,0 l/m 3,7 km/h (1 Bft) SO 136 0 min 0,000 mm 0,0 UV-I 0 W/m 3,4 C 3,8 C 6,4 km/h (2 Bft) 98,11 %
29.01.2016 18:25 3,8 C 97 % 1029,0 hPa 0,0 l/m 3,0 km/h (1 Bft) SO 135 0 min 0,000 mm 0,0 UV-I 0 W/m 3,4 C 3,8 C 4,8 km/h (1 Bft) 98,43 %
29.01.2016 18:30 3,7 C 97 % 1029,1 hPa 0,0 l/m 3,5 km/h (1 Bft) SO 135 0 min 0,000 mm 0,0 UV-I 0 W/m 3,3 C 3,7 C 4,8 km/h (1 Bft) 100,00 %
29.01.2016 18:35 3,8 C 97 % 1029,1 hPa 0,0 l/m 1,8 km/h (1 Bft) SO 135 0 min 0,000 mm 0,0 UV-I 0 W/m 3,4 C 3,8 C 3,2 km/h (1 Bft) 97,35 %
29.01.2016 18:40 3,5 C 97 % 1029,0 hPa 0,0 l/m 0,0 km/h (0 Bft) SO 135 0 min 0,000 mm 0,0 UV-I 0 W/m 3,1 C 3,5 C 1,6 km/h (1 Bft) 97,50 %
29.01.2016 18:45 2,9 C 96 % 1029,0 hPa 0,0 l/m 0,2 km/h (0 Bft) SO 135 0 min 0,000 mm 0,0 UV-I 0 W/m 2,3 C 2,9 C 1,6 km/h (1 Bft) 96,69 %
29.01.2016 18:50 3,0 C 97 % 1029,0 hPa 0,0 l/m 1,4 km/h (1 Bft) SO 135 0 min 0,000 mm 0,0 UV-I 0 W/m 2,6 C 3,0 C 3,2 km/h (1 Bft) 97,50 %
29.01.2016 18:55 3,4 C 98 % 1029,1 hPa 0,0 l/m 1,0 km/h (0 Bft) SO 135 0 min 0,000 mm 0,0 UV-I 0 W/m 3,1 C 3,4 C 3,2 km/h (1 Bft) 98,11 %
29.01.2016 19:00 3,4 C 98 % 1029,1 hPa 0,0 l/m 0,1 km/h (0 Bft) SO 135 0 min 0,000 mm 0,0 UV-I 0 W/m 3,1 C 3,4 C 1,6 km/h (1 Bft) 97,58 %
29.01.2016 19:05 3,3 C 98 % 1029,1 hPa 0,0 l/m 0,0 km/h (0 Bft) SO 135 0 min 0,000 mm 0,0 UV-I 0 W/m 3,0 C 3,3 C 1,6 km/h (1 Bft) 95,61 %
29.01.2016 19:10 3,0 C 97 % 1029,2 hPa 0,0 l/m 0,9 km/h (0 Bft) SO 135 0 min 0,000 mm 0,0 UV-I 0 W/m 2,6 C 3,0 C 3,2 km/h (1 Bft) 97,58 %
29.01.2016 19:15 2,7 C 97 % 1029,2 hPa 0,0 l/m 1,6 km/h (1 Bft) SO 135 0 min 0,000 mm 0,0 UV-I 0 W/m 2,3 C 2,7 C 3,2 km/h (1 Bft) 98,17 %
29.01.2016 19:20 2,8 C 98 % 1029,2 hPa 0,0 l/m 1,0 km/h (0 Bft) SO 135 0 min 0,000 mm 0,0 UV-I 0 W/m 2,5 C 2,8 C 3,2 km/h (1 Bft) 98,33 %
29.01.2016 19:25 2,9 C 98 % 1029,2 hPa 0,0 l/m 0,7 km/h (0 Bft) SO 135 0 min 0,000 mm 0,0 UV-I 0 W/m 2,6 C 2,9 C 3,2 km/h (1 Bft) 100,00 %
29.01.2016 19:30 3,1 C 98 % 1029,2 hPa 0,0 l/m 1,1 km/h (1 Bft) SO 136 0 min 0,000 mm 0,0 UV-I 0 W/m 2,8 C 3,1 C 3,2 km/h (1 Bft) 100,00 %
29.01.2016 19:35 2,8 C 98 % 1029,3 hPa 0,0 l/m 0,7 km/h (0 Bft) SO 136 0 min 0,000 mm 0,0 UV-I 0 W/m 2,5 C 2,8 C 3,2 km/h (1 Bft) 99,21 %
29.01.2016 19:40 2,9 C 98 % 1029,3 hPa 0,0 l/m 2,2 km/h (1 Bft) SO 136 0 min 0,000 mm 0,0 UV-I 0 W/m 2,6 C 2,9 C 3,2 km/h (1 Bft) 99,13 %
29.01.2016 19:45 2,7 C 98 % 1029,3 hPa 0,0 l/m 2,6 km/h (1 Bft) SO 136 0 min 0,000 mm 0,0 UV-I 0 W/m 2,4 C 2,7 C 4,8 km/h (1 Bft) 100,00 %
29.01.2016 19:50 2,6 C 98 % 1029,3 hPa 0,0 l/m 2,3 km/h (1 Bft) SO 136 0 min 0,000 mm 0,0 UV-I 0 W/m 2,3 C 2,6 C 4,8 km/h (1 Bft) 99,15 %
29.01.2016 19:55 2,4 C 98 % 1029,3 hPa 0,0 l/m 2,9 km/h (1 Bft) SO 136 0 min 0,000 mm 0,0 UV-I 0 W/m 2,1 C 2,4 C 4,8 km/h (1 Bft) 99,21 %
29.01.2016 20:00 2,3 C 98 % 1029,4 hPa 0,0 l/m 3,2 km/h (1 Bft) SO 136 0 min 0,000 mm 0,0 UV-I 0 W/m 2,0 C 2,3 C 4,8 km/h (1 Bft) 100,00 %
29.01.2016 20:05 2,4 C 98 % 1029,4 hPa 0,0 l/m 3,5 km/h (1 Bft) SO 136 0 min 0,000 mm 0,0 UV-I 0 W/m 2,1 C 2,4 C 4,8 km/h (1 Bft) 100,00 %
29.01.2016 20:10 2,4 C 98 % 1029,5 hPa 0,0 l/m 5,4 km/h (1 Bft) S-SO 167 0 min 0,000 mm 0,0 UV-I 0 W/m 2,1 C 2,4 C 8,0 km/h (2 Bft) 99,15 %
29.01.2016 20:15 2,4 C 98 % 1029,5 hPa 0,0 l/m 4,5 km/h (1 Bft) S 169 0 min 0,000 mm 0,0 UV-I 0 W/m 2,1 C 2,4 C 6,4 km/h (2 Bft) 99,11 %
29.01.2016 20:20 2,7 C 98 % 1029,5 hPa 0,0 l/m 4,7 km/h (1 Bft) S-SO 164 0 min 0,000 mm 0,0 UV-I 0 W/m 2,4 C 2,7 C 8,0 km/h (2 Bft) 100,00 %
29.01.2016 20:25 2,8 C 98 % 1029,5 hPa 0,0 l/m 5,3 km/h (1 Bft) S 172 0 min 0,000 mm 0,0 UV-I 0 W/m 2,5 C 2,8 C 8,0 km/h (2 Bft) 100,00 %
29.01.2016 20:30 2,8 C 98 % 1029,4 hPa 0,0 l/m 5,8 km/h (2 Bft) S 178 0 min 0,000 mm 0,0 UV-I 0 W/m 2,5 C 2,8 C 8,0 km/h (2 Bft) 100,00 %
29.01.2016 20:35 3,0 C 98 % 1029,3 hPa 0,0 l/m 5,5 km/h (1 Bft) S 175 0 min 0,000 mm 0,0 UV-I 0 W/m 2,7 C 3,0 C 8,0 km/h (2 Bft) 99,17 %
29.01.2016 20:40 3,1 C 98 % 1029,3 hPa 0,0 l/m 4,7 km/h (1 Bft) S-SO 163 0 min 0,000 mm 0,0 UV-I 0 W/m 2,8 C 3,1 C 8,0 km/h (2 Bft) 100,00 %
29.01.2016 20:45 3,3 C 98 % 1029,3 hPa 0,0 l/m 4,6 km/h (1 Bft) S-SO 166 0 min 0,000 mm 0,0 UV-I 0 W/m 3,0 C 3,3 C 8,0 km/h (2 Bft) 100,00 %
29.01.2016 20:50 3,7 C 98 % 1029,3 hPa 0,0 l/m 5,3 km/h (1 Bft) S-SO 156 0 min 0,000 mm 0,0 UV-I 0 W/m 3,4 C 3,7 C 9,7 km/h (2 Bft) 94,74 %
29.01.2016 20:55 3,8 C 98 % 1029,3 hPa 0,0 l/m 5,1 km/h (1 Bft) S 182 0 min 0,000 mm 0,0 UV-I 0 W/m 3,5 C 3,8 C 9,7 km/h (2 Bft) 97,52 %
29.01.2016 21:00 3,3 C 98 % 1029,3 hPa 0,0 l/m 4,6 km/h (1 Bft) S 175 0 min 0,000 mm 0,0 UV-I 0 W/m 3,0 C 3,3 C 8,0 km/h (2 Bft) 96,52 %
29.01.2016 21:05 3,2 C 98 % 1029,3 hPa 0,0 l/m 4,3 km/h (1 Bft) S 182 0 min 0,000 mm 0,0 UV-I 0 W/m 2,9 C 3,2 C 8,0 km/h (2 Bft) 96,67 %
29.01.2016 21:10 3,0 C 98 % 1029,4 hPa 0,0 l/m 4,8 km/h (1 Bft) S 179 0 min 0,000 mm 0,0 UV-I 0 W/m 2,7 C 3,0 C 6,4 km/h (2 Bft) 97,32 %
29.01.2016 21:15 3,2 C 98 % 1029,4 hPa 0,0 l/m 5,4 km/h (1 Bft) S 173 0 min 0,000 mm 0,0 UV-I 0 W/m 2,9 C 3,2 C 6,4 km/h (2 Bft) 98,11 %
29.01.2016 21:20 3,3 C 98 % 1029,3 hPa 0,0 l/m 6,3 km/h (2 Bft) S 182 0 min 0,000 mm 0,0 UV-I 0 W/m 3,0 C 3,3 C 8,0 km/h (2 Bft) 96,83 %
29.01.2016 21:25 3,5 C 98 % 1029,3 hPa 0,0 l/m 5,1 km/h (1 Bft) S 189 0 min 0,000 mm 0,0 UV-I 0 W/m 3,2 C 3,5 C 8,0 km/h (2 Bft) 97,46 %
29.01.2016 21:30 3,3 C 98 % 1029,2 hPa 0,0 l/m 4,2 km/h (1 Bft) S 188 0 min 0,000 mm 0,0 UV-I 0 W/m 3,0 C 3,3 C 6,4 km/h (2 Bft) 97,32 %
29.01.2016 21:35 3,3 C 98 % 1029,2 hPa 0,0 l/m 4,8 km/h (1 Bft) S-SO 166 0 min 0,000 mm 0,0 UV-I 0 W/m 3,0 C 3,3 C 8,0 km/h (2 Bft) 98,37 %
29.01.2016 21:40 3,5 C 98 % 1029,1 hPa 0,0 l/m 5,1 km/h (1 Bft) S-SO 165 0 min 0,000 mm 0,0 UV-I 0 W/m 3,2 C 3,5 C 8,0 km/h (2 Bft) 100,00 %
29.01.2016 21:45 3,6 C 98 % 1029,2 hPa 0,0 l/m 5,2 km/h (1 Bft) S-SO 161 0 min 0,000 mm 0,0 UV-I 0 W/m 3,3 C 3,6 C 8,0 km/h (2 Bft) 98,29 %
29.01.2016 21:50 3,8 C 98 % 1029,1 hPa 0,0 l/m 3,3 km/h (1 Bft) S-SO 167 0 min 0,000 mm 0,0 UV-I 0 W/m 3,5 C 3,8 C 8,0 km/h (2 Bft) 99,17 %
29.01.2016 21:55 3,7 C 98 % 1029,1 hPa 0,0 l/m 3,4 km/h (1 Bft) S 171 0 min 0,000 mm 0,0 UV-I 0 W/m 3,4 C 3,7 C 8,0 km/h (2 Bft) 100,00 %
29.01.2016 22:00 3,0 C 97 % 1029,2 hPa 0,0 l/m 2,1 km/h (1 Bft) S 171 0 min 0,000 mm 0,0 UV-I 0 W/m 2,6 C 3,0 C 3,2 km/h (1 Bft) 99,26 %
29.01.2016 22:05 2,6 C 97 % 1029,1 hPa 0,0 l/m 3,6 km/h (1 Bft) S-SW 192 0 min 0,000 mm 0,0 UV-I 0 W/m 2,2 C 2,6 C 6,4 km/h (2 Bft) 100,00 %
29.01.2016 22:10 2,4 C 97 % 1029,1 hPa 0,0 l/m 3,4 km/h (1 Bft) S 186 0 min 0,000 mm 0,0 UV-I 0 W/m 2,0 C 2,4 C 6,4 km/h (2 Bft) 98,26 %
29.01.2016 22:15 2,6 C 98 % 1029,1 hPa 0,0 l/m 2,6 km/h (1 Bft) S-SW 192 0 min 0,000 mm 0,0 UV-I 0 W/m 2,3 C 2,6 C 4,8 km/h (1 Bft) 100,00 %
29.01.2016 22:20 2,8 C 98 % 1029,1 hPa 0,0 l/m 1,7 km/h (1 Bft) W-SW 242 0 min 0,000 mm 0,0 UV-I 0 W/m 2,5 C 2,8 C 4,8 km/h (1 Bft) 100,00 %
29.01.2016 22:25 2,6 C 98 % 1029,0 hPa 0,0 l/m 0,5 km/h (0 Bft) W-SW 255 0 min 0,000 mm 0,0 UV-I 0 W/m 2,3 C 2,6 C 3,2 km/h (1 Bft) 99,17 %
29.01.2016 22:30 2,6 C 98 % 1028,9 hPa 0,0 l/m 0,6 km/h (0 Bft) W-SW 255 0 min 0,000 mm 0,0 UV-I 0 W/m 2,3 C 2,6 C 3,2 km/h (1 Bft) 98,35 %
29.01.2016 22:35 2,6 C 98 % 1028,8 hPa 0,0 l/m 1,8 km/h (1 Bft) W-SW 255 0 min 0,000 mm 0,0 UV-I 0 W/m 2,3 C 2,6 C 3,2 km/h (1 Bft) 100,00 %
29.01.2016 22:40 2,2 C 97 % 1028,8 hPa 0,0 l/m 4,3 km/h (1 Bft) O-NO 71 0 min 0,000 mm 0,0 UV-I 0 W/m 1,8 C 2,2 C 6,4 km/h (2 Bft) 100,00 %
29.01.2016 22:45 1,9 C 97 % 1028,8 hPa 0,0 l/m 2,0 km/h (1 Bft) O-NO 67 0 min 0,000 mm 0,0 UV-I 0 W/m 1,5 C 1,9 C 4,8 km/h (1 Bft) 100,00 %
29.01.2016 22:50 1,6 C 97 % 1028,7 hPa 0,0 l/m 1,5 km/h (1 Bft) O-NO 76 0 min 0,000 mm 0,0 UV-I 0 W/m 1,2 C 1,6 C 4,8 km/h (1 Bft) 98,29 %
29.01.2016 22:55 1,4 C 97 % 1028,5 hPa 0,0 l/m 0,8 km/h (0 Bft) O-NO 76 0 min 0,000 mm 0,0 UV-I 0 W/m 1,0 C 1,4 C 3,2 km/h (1 Bft) 99,13 %
29.01.2016 23:00 1,3 C 98 % 1028,5 hPa 0,0 l/m 2,3 km/h (1 Bft) O-NO 73 0 min 0,000 mm 0,0 UV-I 0 W/m 1,0 C 1,3 C 4,8 km/h (1 Bft) 100,00 %
29.01.2016 23:05 0,7 C 97 % 1028,4 hPa 0,0 l/m 2,2 km/h (1 Bft) N-NO 27 0 min 0,000 mm 0,0 UV-I 0 W/m 0,3 C 0,7 C 4,8 km/h (1 Bft) 97,56 %
29.01.2016 23:10 0,4 C 97 % 1028,5 hPa 0,0 l/m 1,6 km/h (1 Bft) NO 35 0 min 0,000 mm 0,0 UV-I 0 W/m -0,0 C 0,4 C 4,8 km/h (1 Bft) 96,43 %
29.01.2016 23:15 0,5 C 97 % 1028,3 hPa 0,0 l/m 2,3 km/h (1 Bft) NW 310 0 min 0,000 mm 0,0 UV-I 0 W/m 0,1 C 0,5 C 4,8 km/h (1 Bft) 98,35 %
29.01.2016 23:20 0,4 C 98 % 1028,3 hPa 0,0 l/m 0,7 km/h (0 Bft) NW 310 0 min 0,000 mm 0,0 UV-I 0 W/m 0,1 C 0,4 C 3,2 km/h (1 Bft) 97,37 %
29.01.2016 23:25 0,3 C 98 % 1028,3 hPa 0,0 l/m 0,4 km/h (0 Bft) NW 310 0 min 0,000 mm 0,0 UV-I 0 W/m 0,0 C 0,3 C 3,2 km/h (1 Bft) 95,76 %
29.01.2016 23:30 0,3 C 98 % 1028,3 hPa 0,0 l/m 0,6 km/h (0 Bft) NW 310 0 min 0,000 mm 0,0 UV-I 0 W/m 0,0 C 0,3 C 3,2 km/h (1 Bft) 98,11 %
29.01.2016 23:35 0,2 C 98 % 1028,4 hPa 0,0 l/m 1,1 km/h (1 Bft) NW 310 0 min 0,000 mm 0,0 UV-I 0 W/m -0,1 C 0,2 C 3,2 km/h (1 Bft) 95,56 %
29.01.2016 23:40 0,2 C 98 % 1028,3 hPa 0,0 l/m 1,0 km/h (0 Bft) NW 310 0 min 0,000 mm 0,0 UV-I 0 W/m -0,1 C 0,2 C 3,2 km/h (1 Bft) 97,39 %
29.01.2016 23:45 0,3 C 98 % 1028,3 hPa 0,0 l/m 1,4 km/h (1 Bft) NW 310 0 min 0,000 mm 0,0 UV-I 0 W/m 0,0 C 0,3 C 3,2 km/h (1 Bft) 98,20 %
29.01.2016 23:50 0,4 C 98 % 1028,2 hPa 0,0 l/m 1,6 km/h (1 Bft) N 360 0 min 0,000 mm 0,0 UV-I 0 W/m 0,1 C 0,4 C 4,8 km/h (1 Bft) 98,25 %
29.01.2016 23:55 0,3 C 98 % 1028,2 hPa 0,0 l/m 1,6 km/h (1 Bft) O-NO 73 0 min 0,000 mm 0,0 UV-I 0 W/m 0,0 C 0,3 C 1,6 km/h (1 Bft) 100,00 %
_ Min-Zeit 23:35 15:30 03:45 - 02:05 - - - - - - 23:35 23:35 02:25 08:30
Minimum _ 0,2 C 87 % 1025,5 hPa - 0,0 km/h (0 Bft) - - - - - - -0,1 C 0,2 C 0,0 km/h (0 Bft) 94,00 %
_ Max-Zeit 15:30 05:25 10:35 04:30 11:20 - - 15:10 14:05 11:45 15:15 00:10 15:30 11:20 00:45
Maximum _ 7,6 C 99 % 1030,2 hPa 0,4 l/m 14,0 km/h
W-SW (3 Bft)
- - 5 min 0,077 mm 0,7 UV-I 217 W/m 6,1 C 7,6 C 25,7 km/h
W-SW (4 Bft)
100,00 %
Durchschnitt _ 5,4 C 96 % 1028,3 hPa #6,4 l/m 3,6 km/h (1 Bft) W - #1:05 h #0,356 mm 0,5 UV-I 80 W/m 4,7 C 5,2 C 7,3 km/h (2 Bft) 98,55 %